Station SDIA2 - South Douglas, AK Image indicating link to RSS feed of recent meteorological observations for station SDIA2


Conditions at SDIA2 as of
(8:44 am AKDT)
1644 GMT on 05/30/2023:
     

Click on the graph icon in the table below to see a time series plot of the last five days of that observation.

5-day plot - Wind Direction Wind Direction (WDIR): SE ( 140 deg true )
5-day plot - Wind Speed Wind Speed (WSPD): 4.1 kts
5-day plot - Wind Gust Wind Gust (GST): 5.1 kts
5-day plot - Atmospheric Pressure Atmospheric Pressure (PRES):29.85 in
5-day plot - Air Temperature Air Temperature (ATMP): 44.1 °F
5-day plot - Dew Point Dew Point (DEWP): 41.0 °F
5-day plot - Wind Chill Wind Chill (CHILL): 41.5 °F
5-day plot - Wind Speed at 10 Meters Wind Speed at 10 meters (WSPD10M): 5.8 kts
5-day plot - Wind Speed at 20 Meters Wind Speed at 20 meters (WSPD20M): 5.8 kts
5-day plot -  Wind Speed, Wind Gust and Atmospheric Pressure Combined plot of Wind Speed, Gust, and Air Pressure
Supplemental Measurements
Previous observations
TIME
(AKDT)
5-day plot - Wind Direction
WDIR
 
5-day plot - Wind Speed
WSPD
kts
5-day plot - Wind Gust
GST
kts
5-day plot - Wave Height
WVHT
ft
5-day plot - Dominant Wave Period
DPD
sec
5-day plot - Average Wave Period
APD
sec
5-day plot - Mean Wave Direction
MWD
 
5-day plot - Atmospheric Pressure
PRES
in
5-day plot - Pressure Tendency
PTDY
in
5-day plot - Air Temperature
ATMP
°F
5-day plot - Water Temperature
WTMP
°F
5-day plot - Dew Point
DEWP
°F
5-day plot - Salinity
SAL
psu
5-day plot - Visibility
VIS
nmi
5-day plot - Tide (above MLLW)
TIDE
ft
2023-05-30 08:24 amSSE 4.1 5.1----29.85- 44.1- 41.0---
2023-05-30 08:04 am SE 5.1 6.0----29.85- 44.1- 41.0---
2023-05-30 07:44 am SE 4.1 4.1----29.85- 44.1- 41.0---
2023-05-30 07:24 am SE 4.1 4.1----29.85- 44.1- 41.0---
2023-05-30 07:04 amSSE 5.1 5.1----29.85- 44.1- 41.0---
2023-05-30 06:44 amSSE 4.1 4.1----29.85- 43.0- 41.0---
2023-05-30 06:24 am S 1.9 1.9----29.85- 43.0- 41.0---
2023-05-30 06:04 amSSE 4.1 4.1----29.85- 43.0- 41.0---
2023-05-30 05:24 amSSE 2.9 2.9----29.85- 43.0- 41.0---
2023-05-30 05:04 am S 2.9 2.9----29.85- 43.0- 41.0---
2023-05-30 04:44 am- 0.0 2.9----29.85- 43.0- 41.0---
2023-05-30 04:24 am S 1.9 1.9----29.85- 43.0- 41.0---
2023-05-30 04:04 am S 1.9 2.9----29.85- 43.0- 41.0---
2023-05-30 03:44 amSSE 4.1 5.1----29.85- 43.0- 41.0---
2023-05-30 03:24 am SE 5.1 7.0----29.85- 44.1- 39.9---
2023-05-30 03:04 am SE 5.1 6.0----29.85- 44.1- 41.0---
2023-05-30 02:44 amSSE 5.1 6.0----29.85- 44.1- 41.0---
2023-05-30 02:24 am SE 6.0 7.0----29.85- 44.1- 41.0---
2023-05-30 02:04 am SE 7.0 8.0----29.85- 44.1- 41.0---
2023-05-30 01:44 am SE 9.9 9.9----29.86- 44.1- 41.0---
2023-05-30 01:24 am SE 9.9 9.9----29.86- 44.1- 41.0---
2023-05-30 01:04 am SE 8.9 9.9----29.87- 44.1- 41.0---
2023-05-30 12:44 am SE 9.9 9.9----29.87- 44.1- 41.0---
2023-05-30 12:24 am SE 8.0 9.9----29.87- 44.1- 41.0---
2023-05-30 12:04 am SE 8.9 11.1----29.87- 45.0- 42.1---
2023-05-29 11:44 pmESE 9.9 9.9----29.87- 45.0- 42.1---
2023-05-29 11:24 pm SE 5.1 7.0----29.88- 45.0- 42.1---
2023-05-29 11:04 pm SE 9.9 9.9----29.88- 45.0- 42.1---
2023-05-29 10:44 pm SE 8.0 8.9----29.88- 45.0- 42.1---
2023-05-29 10:24 pm SE 4.1 4.1----29.88- 44.1- 42.1---
2023-05-29 10:04 pmSSW 2.9 2.9----29.88- 44.1- 42.1---
2023-05-29 09:44 pm S 4.1 4.1----29.89- 44.1- 42.1---
2023-05-29 09:24 pm SE 5.1 6.0----29.88- 45.0- 42.1---
2023-05-29 09:04 pmSSE 4.1 7.0----29.89- 45.0- 42.1---
2023-05-29 08:44 pmSSE 4.1 4.1----29.88- 45.0- 43.0---
2023-05-29 08:24 pmSSE 4.1 6.0----29.89- 45.0- 42.1---
2023-05-29 08:04 pm SE 5.1 6.0----29.89- 45.0- 42.1---
2023-05-29 07:44 pmSSE 8.0 9.9----29.89- 45.0- 42.1---
2023-05-29 07:24 pm SE 7.0 8.0----29.89- 45.0- 42.1---
2023-05-29 07:04 pm SE 8.9 9.9----29.88- 45.0- 42.1---
2023-05-29 06:44 pm SE 8.9 9.9----29.89- 45.0- 42.1---
2023-05-29 06:24 pmESE 12.0 14.0----29.89- 45.0- 42.1---
2023-05-29 06:04 pm SE 13.0 13.0----29.89- 45.0- 42.1---
2023-05-29 05:44 pm SE 8.9 9.9----29.90- 45.0- 43.0---
2023-05-29 05:24 pm SE 8.0 9.9----29.90- 45.0- 42.1---
2023-05-29 05:04 pm SE 8.0 9.9----29.91- 45.0- 43.0---
2023-05-29 04:44 pm SE 7.0 8.9----29.91- 45.0- 43.0---
2023-05-29 04:24 pmSSE 8.0 8.9----29.91- 45.0- 43.0---
2023-05-29 04:04 pm SE 8.0 9.9----29.91- 45.0- 42.1---
2023-05-29 03:44 pm SE 8.9 9.9----29.91- 46.0- 42.1---
2023-05-29 03:24 pm SE 7.0 9.9----29.91- 46.0- 42.1---
2023-05-29 03:04 pm SE 7.0 9.9----29.92- 46.0- 42.1---
2023-05-29 02:44 pm SE 11.1 11.1----29.91- 45.0- 42.1---
2023-05-29 02:24 pm SE 9.9 12.0----29.91- 46.0- 42.1---
2023-05-29 02:04 pm SE 8.9 8.9----29.92- 45.0- 42.1---
2023-05-29 01:44 pmSSE 9.9 9.9----29.91- 45.0- 42.1---
2023-05-29 01:24 pmSSE 8.9 8.9----29.92- 45.0- 42.1---
2023-05-29 01:04 pm SE 6.0 9.9----29.92- 45.0- 42.1---
2023-05-29 12:44 pmSSE 9.9 9.9----29.92- 45.0- 42.1---
2023-05-29 12:24 pm SE 8.9 9.9----29.92- 45.0- 42.1---
2023-05-29 12:04 pm SE 8.0 8.0----29.92- 45.0- 42.1---
2023-05-29 11:44 am SE 7.0 8.9----29.92- 45.0- 42.1---
2023-05-29 11:24 amSSE 8.9 8.9----29.92- 45.0- 42.1---
2023-05-29 10:44 am SE 8.0 9.9----29.93- 45.0- 42.1---
2023-05-29 10:24 am SE 8.9 11.1----29.93- 45.0- 42.1---
2023-05-29 10:04 am SE 9.9 9.9----29.92- 45.0- 42.1---
2023-05-29 09:44 am SE 8.9 9.9----29.93- 45.0- 42.1---
2023-05-29 09:24 am SE 7.0 7.0----29.93- 45.0- 42.1---
2023-05-29 09:04 am S 1.9 1.9----29.93- 44.1- 42.1---